Regional Weather Roundup
Issued by NWS

Home | Current Version | Previous Version | Graphics & Text | Print | Product List | Glossary On
Versions: 1 2 3 4 5 6 7 8 9 10 11 12 13 14 15 16 17 18 19 20 21 22 23 24 25 26 27 28 29 30 31 32 33 34 35 36 37 38 39 40 41 42 43 44 45 46 47 48 49 50
000
ASUS43 KMKX 171611
RWRWI

WISCONSIN REGIONAL WEATHER ROUNDUP
NATIONAL WEATHER SERVICE MILWAUKEE/SULLIVAN WI
1100 AM CDT THU AUG 17 2017

NOTE: "FAIR" INDICATES FEW OR NO CLOUDS BELOW 12,000 FEET WITH NO
SIGNIFICANT WEATHER AND/OR OBSTRUCTIONS TO VISIBILITY.

WIZ001-002-006>008-014>016-023>028-171700-
NORTHWEST WISCONSIN

CITY           SKY/WX    TMP DP  RH WIND       PRES   REMARKS
SUPERIOR ARPT    N/A     61  61  99 NE13G22   29.62S FOG
ASHLAND        LGT RAIN  64  63  96 NE12      29.58S
HAYWARD        RAIN      64  62  93 N7        29.58S FOG
SIREN          DRIZZLE   63  62  97 N12       29.60R
CUMBERLAND     CLOUDY    64  61  88 N5        29.58S
RICE LAKE      CLOUDY    68  68  98 N6        29.58R
CHETEK         DRIZZLE   67  67  99 N9        29.55S
LADYSMITH      LGT RAIN  67  67  97 E3        29.58S
EAU CLAIRE     CLOUDY    69  67  93 W9        29.50S
MENOMONIE      DRIZZLE   67  67  99 NW14G21   29.53R
NEW RICHMOND   MOSUNNY   73  65  75 NW8       29.58R
OSCEOLA        DRIZZLE   65  65 100 NW12      29.63R
$$

WIZ003>005-009-010-017-018-171700-
NORTH CENTRAL WISCONSIN

CITY           SKY/WX    TMP DP  RH WIND       PRES   REMARKS
MANITOWISH WTR HVY RAIN  66  66 100 SW7       29.59F
ARBOR VITAE    CLOUDY    69  67  93 SW5       29.60S
WOODRUFF       CLOUDY    69  67  93 SW5       29.60S
RHINELANDER    CLOUDY    70  66  87 S10       29.61F
EAGLE RIVER    LGT RAIN  67  66  96 S7G18     29.60F
LAND O LAKES   CLOUDY    72  69  90 SE7       29.62F
PHILLIPS       CLOUDY    67  65  94 S6        29.58S
TOMAHAWK         N/A     67  65  93 S6        29.60F FOG
MEDFORD        LGT RAIN  65  63  93 S12G21    29.57F
MERRILL        CLOUDY    70  64  83 S12G18    29.61S
$$

WIZ029-030-035-036-043>047-171700-
CENTRAL WISCONSIN

CITY           SKY/WX    TMP DP  RH WIND       PRES   REMARKS
WAUSAU         CLOUDY    69  63  81 S10       29.60F
MOSINEE        CLOUDY    70  64  83 S15       29.62F
MARSHFIELD     LGT RAIN  67  64  90 S14G21    29.58F FOG
STEVENS POINT  CLOUDY    68  65  89 S12G17    29.63F
WAUPACA        CLOUDY    73  69  87 S12       29.64F
WAUTOMA        CLOUDY    72  65  78 S17G26    29.65F
WISC RAPIDS    LGT RAIN  70  65  84 S12G25    29.63F
CAMP DOUGLAS   LGT RAIN  72  64  78 SW12G20   29.61F
$$

WIZ011>013-019>022-031-037>040-048>050-171700-
NORTHEAST WISCONSIN

CITY           SKY/WX    TMP DP  RH WIND       PRES   REMARKS
ANTIGO         CLOUDY    68  66  93 S13       29.63F
SHAWANO        CLOUDY    80  67  65 SW12G21   29.62S HX  82
OCONTO         PTSUNNY   77  71  82 S12G18    29.61F
STURGEON BAY   CLOUDY    73  71  93 S16       29.65F
GREEN BAY      PTSUNNY   78  70  76 S14G23    29.63F HX  80
MANITOWOC      CLOUDY    76  71  85 S10       29.67F
APPLETON       PTSUNNY   75  64  69 SW14      29.64F
CLINTONVILLE   CLOUDY    75  64  69 SW13G21   29.63S
OSHKOSH        PTSUNNY   75  65  70 SW12      29.65F
$$

WIZ032>034-041-042-053>061-171700-
SOUTHWEST WISCONSIN

CITY           SKY/WX    TMP DP  RH WIND       PRES   REMARKS
LA CROSSE      LGT RAIN  71  66  84 SW13G23   29.60R
SPARTA         CLOUDY    69  64  84 SW12G17   29.60S
VIROQUA        CLOUDY    67  66  94 SW20G25   29.66R
BOSCOBEL       CLOUDY    75  64  68 SW15G22   29.67S
PRAIRIE DU CHI CLOUDY    74  62  64 SW17G24   29.67F
PLATTEVILLE    PTSUNNY   72  69  90 SW14G21   29.73S
$$

WIZ056-057-062-063-064-067-068-171700-
SOUTH CENTRAL WISCONSIN

CITY           SKY/WX    TMP DP  RH WIND       PRES   REMARKS
REEDSBURG      CLOUDY    71  66  86 S9G20     29.66S
BARABOO/DELLS  CLOUDY    70  63  80 SW13G20   29.67S
LONE ROCK      CLOUDY    73  66  78 SW12G22   29.67F
MINERAL POINT  CLOUDY    72  70  94 SW14      29.72S
MADISON        PTSUNNY   73  64  73 SW8G18    29.69S
MIDDLETON      CLOUDY    74  65  73 SW16G23   29.70S
WATERTOWN      CLOUDY    75  68  78 SW22G28   29.69S
MONROE         CLOUDY    72  63  73 SW21G28   29.73S
JANESVILLE     PTSUNNY   77  68  73 SW12      29.70F
$$

WIZ051-052-058>065-066-070>072-171700-
SOUTHEAST WISCONSIN

CITY           SKY/WX    TMP DP  RH WIND       PRES   REMARKS
MILWAUKEE      LGT RAIN  77  71  82 SW13      29.71F
WAUKESHA       CLOUDY    73  66  78 SW10G22   29.73F
MILWAUKEE/TIMM CLOUDY    75  66  73 SW12G21   29.72F
RACINE         RAIN      75  72  90 SW8       29.74S FOG
KENOSHA        CLOUDY    76  70  82 SW12      29.73F
FOND DU LAC    LGT RAIN  75  66  73 S15G26    29.66F
SHEBOYGAN      PTSUNNY   77  71  82 SW14      29.68F
WEST BEND      PTSUNNY   75  68  78 S10G17    29.69S
JUNEAU         CLOUDY    75  65  71 S18G26    29.70S
$$

LSZ147-162-171700-
LAKE SUPERIOR

STATION/POSITION TIME  TEMP    WIND        PRES    WAVE
                       AIR SEA DIR/SP/G            HT/PER
                 (UTC) (F)     (DEG/KT/KT) (MB)    (FT/S)
W MID LAKE BUOY  1550   61 60   40/ 17/ 19 1002.0F   4/ 5
DEVILS ISLAND    1600   60      50/ 19/ 22 1002.3F
SAXON HARBOR     1540   65      40/  6/  7 1001.4S
$$

LMZ867-665-643>646-171700-
LAKE MICHIGAN

STATION/POSITION TIME  TEMP    WIND        PRES    WAVE
                       AIR SEA DIR/SP/G            HT/PER
                 (UTC) (F)     (DEG/KT/KT) (MB)    (FT/S)
S GREEN BAY BUOY 1600   74 72  160/ 14/ 16 1003.3
N MID LAKE BUOY  1550   67 67  170/ 19/ 25 1004.8S   4/ 6
NORTHPORT PIER   1540   70     160/ 10/ 19 1004.7S
KEWAUNEE LAKESHO 1542   71     180/ 15/ 18 1004.0F
SHEBOYGAN LAKESH 1600   72     170/ 18/ 19 1004.3F
PORT WASHINGTON  1530   79     210/  8/ 13 1006.4S
ATWATER BUOY     1509   75 71  210/ 14/ 19 1006.5
MILWAUKEE LAKESH 1550   76     210/ 12/ 14   N/A
S MID LAKE BUOY  1550   72 72  210/ 19/ 21 1006.6S   4/ 5
KENOSHA   LAKESH 1600   77     220/  9/ 14 1006.4
$$

TC  - TEMPERATURE IN CELSIUS
VSB - VISIBILITY IN STATUTE MILES
WCI - WIND CHILL INDEX
HX  - HEAT INDEX




USA.gov is the U.S. government's official web portal to all federal, state and local government web resources and services.